Time,TemperatureF,DewpointF,PressureIn,WindDirection,WindDirectionDegrees,WindSpeedMPH,WindSpeedGustMPH,Humidity,HourlyPrecipIn,Conditions,Clouds,dailyrainin,SoftwareType,DateUTC
2013-04-02 00:03:00,74.0,70.0,22.61,North,360,1.0,8.0,86,0.00,,,0.00,,2013-04-02 04:03:00,
2013-04-02 00:13:00,74.0,70.0,22.61,North,360,1.0,8.0,86,0.00,,,0.00,,2013-04-02 04:13:00,
2013-04-02 00:23:00,74.0,69.0,22.61,North,1,1.0,7.0,85,0.00,,,0.00,,2013-04-02 04:23:00,
2013-04-02 00:33:00,74.0,70.0,22.61,North,1,2.0,4.0,86,0.00,,,0.00,,2013-04-02 04:33:00,
2013-04-02 00:43:00,74.0,70.0,22.61,North,1,2.0,4.0,86,0.00,,,0.00,,2013-04-02 04:43:00,
2013-04-02 00:53:00,74.0,69.0,22.61,North,1,0.0,4.0,85,0.00,,,0.00,,2013-04-02 04:53:00,
2013-04-02 01:02:00,74.0,69.0,22.61,North,1,2.0,5.0,85,0.00,,,0.00,,2013-04-02 05:02:00,
2013-04-02 01:12:00,74.0,69.0,22.61,North,1,2.0,5.0,85,0.00,,,0.00,,2013-04-02 05:12:00,
2013-04-02 01:22:00,74.0,69.0,22.61,North,1,0.0,6.0,85,0.00,,,0.00,,2013-04-02 05:22:00,
2013-04-02 01:32:00,74.0,70.0,22.61,North,1,0.0,5.0,86,0.00,,,0.00,,2013-04-02 05:32:00,
2013-04-02 01:43:00,74.0,70.0,22.61,North,1,0.0,5.0,86,0.00,,,0.00,,2013-04-02 05:43:00,
2013-04-02 01:52:00,74.0,69.0,26.41,North,1,0.0,4.0,85,0.00,,,0.00,,2013-04-02 05:52:00,
2013-04-02 02:02:00,74.0,70.0,26.41,North,1,0.0,4.0,86,0.00,,,0.00,,2013-04-02 06:02:00,
2013-04-02 02:12:00,74.0,70.0,26.41,North,1,0.0,4.0,86,0.00,,,0.00,,2013-04-02 06:12:00,
2013-04-02 02:22:00,73.0,69.0,26.41,North,1,0.0,4.0,86,0.00,,,0.00,,2013-04-02 06:22:00,
2013-04-02 02:32:00,73.0,69.0,26.41,North,1,0.0,3.0,86,0.00,,,0.00,,2013-04-02 06:32:00,
2013-04-02 02:42:00,73.0,69.0,26.41,North,1,0.0,3.0,86,0.00,,,0.00,,2013-04-02 06:42:00,
2013-04-02 02:52:00,73.0,69.0,26.41,North,1,0.0,3.0,87,0.00,,,0.00,,2013-04-02 06:52:00,
2013-04-02 03:02:00,73.0,69.0,26.41,North,1,2.0,6.0,86,0.00,,,0.00,,2013-04-02 07:02:00,
2013-04-02 03:12:00,73.0,69.0,26.41,North,1,2.0,6.0,86,0.00,,,0.00,,2013-04-02 07:12:00,
2013-04-02 03:22:00,73.0,68.0,26.40,NE,38,5.0,7.0,85,0.00,,,0.00,,2013-04-02 07:22:00,
2013-04-02 03:32:00,73.0,68.0,26.40,NE,38,3.0,7.0,84,0.00,,,0.00,,2013-04-02 07:32:00,
2013-04-02 03:42:00,73.0,68.0,26.40,NE,38,3.0,7.0,84,0.00,,,0.00,,2013-04-02 07:42:00,
2013-04-02 03:53:00,73.0,68.0,30.02,NE,39,5.0,10.0,83,0.00,,,0.00,,2013-04-02 07:53:00,
2013-04-02 04:02:00,73.0,67.0,26.41,NE,39,5.0,9.0,82,0.00,,,0.00,,2013-04-02 08:02:00,
2013-04-02 04:13:00,73.0,67.0,26.41,NE,39,5.0,9.0,82,0.00,,,0.00,,2013-04-02 08:13:00,
2013-04-02 04:22:00,73.0,67.0,26.41,NE,39,2.0,7.0,82,0.00,,,0.00,,2013-04-02 08:22:00,
2013-04-02 04:32:00,73.0,67.0,26.41,NE,39,2.0,6.0,81,0.00,,,0.00,,2013-04-02 08:32:00,
2013-04-02 04:42:00,73.0,67.0,26.41,NE,39,2.0,6.0,81,0.00,,,0.00,,2013-04-02 08:42:00,
2013-04-02 04:52:00,73.0,66.0,26.42,NE,39,6.0,10.0,79,0.00,,,0.00,,2013-04-02 08:52:00,
2013-04-02 05:02:00,73.0,66.0,26.42,NE,39,6.0,10.0,78,0.00,,,0.00,,2013-04-02 09:02:00,
2013-04-02 05:12:00,73.0,66.0,26.42,NE,39,6.0,10.0,78,0.00,,,0.00,,2013-04-02 09:12:00,
2013-04-02 05:22:00,73.0,66.0,26.33,NE,39,4.0,9.0,80,0.00,,,0.00,,2013-04-02 09:22:00,
2013-04-02 05:32:00,73.0,66.0,26.41,NE,39,5.0,11.0,80,0.00,,,0.00,,2013-04-02 09:32:00,
2013-04-02 05:43:00,73.0,66.0,26.41,NE,39,5.0,11.0,80,0.00,,,0.00,,2013-04-02 09:43:00,
2013-04-02 05:53:00,73.0,67.0,26.41,NE,39,7.0,11.0,81,0.00,,,0.00,,2013-04-02 09:53:00,
2013-04-02 06:03:00,73.0,67.0,26.41,NE,39,4.0,11.0,81,0.00,,,0.00,,2013-04-02 10:03:00,
2013-04-02 06:13:00,73.0,67.0,26.41,NE,39,4.0,11.0,81,0.00,,,0.00,,2013-04-02 10:13:00,
2013-04-02 06:23:00,72.0,66.0,26.41,NE,39,4.0,8.0,82,0.00,,,0.00,,2013-04-02 10:23:00,
2013-04-02 06:33:00,72.0,67.0,26.41,NE,39,3.0,9.0,83,0.00,,,0.00,,2013-04-02 10:33:00,
2013-04-02 06:42:00,72.0,67.0,26.41,NE,39,3.0,9.0,83,0.00,,,0.00,,2013-04-02 10:42:00,
2013-04-02 06:53:00,72.0,67.0,27.38,NE,39,2.0,10.0,83,0.00,,,0.00,,2013-04-02 10:53:00,
2013-04-02 07:02:00,72.0,67.0,27.38,NE,39,2.0,9.0,83,0.00,,,0.00,,2013-04-02 11:02:00,
2013-04-02 07:12:00,72.0,67.0,27.38,NE,39,2.0,9.0,83,0.00,,,0.00,,2013-04-02 11:12:00,
2013-04-02 07:22:00,72.0,67.0,27.38,NE,39,2.0,7.0,83,0.00,,,0.00,,2013-04-02 11:22:00,
2013-04-02 07:33:00,72.0,67.0,27.38,NE,39,3.0,6.0,84,0.00,,,0.00,,2013-04-02 11:33:00,
2013-04-02 07:43:00,72.0,67.0,27.38,NE,39,3.0,6.0,84,0.00,,,0.00,,2013-04-02 11:43:00,
2013-04-02 07:53:00,72.0,67.0,26.46,NE,39,0.0,4.0,85,0.00,,,0.00,,2013-04-02 11:53:00,
2013-04-02 08:02:00,72.0,67.0,26.46,NE,39,0.0,6.0,85,0.00,,,0.00,,2013-04-02 12:02:00,
2013-04-02 08:12:00,72.0,67.0,26.46,NE,39,0.0,6.0,85,0.00,,,0.00,,2013-04-02 12:12:00,
2013-04-02 08:23:00,72.0,67.0,26.46,NE,39,1.0,5.0,85,0.00,,,0.00,,2013-04-02 12:23:00,
2013-04-02 08:32:00,72.0,67.0,26.46,NE,40,4.0,5.0,83,0.00,,,0.00,,2013-04-02 12:32:00,
2013-04-02 08:42:00,72.0,67.0,26.46,NE,40,4.0,5.0,83,0.00,,,0.00,,2013-04-02 12:42:00,
2013-04-02 08:53:00,74.0,67.0,26.46,NE,40,0.0,4.0,79,0.00,,,0.00,,2013-04-02 12:53:00,
2013-04-02 09:02:00,74.0,67.0,26.46,NE,40,0.0,0.0,78,0.00,,,0.00,,2013-04-02 13:02:00,
2013-04-02 09:12:00,76.0,67.0,26.46,NE,40,0.0,3.0,75,0.00,,,0.00,,2013-04-02 13:12:00,
2013-04-02 09:22:00,76.0,67.0,26.46,NE,40,0.0,3.0,75,0.00,,,0.00,,2013-04-02 13:22:00,
2013-04-02 09:33:00,76.0,67.0,26.46,NE,40,0.0,4.0,74,0.00,,,0.00,,2013-04-02 13:33:00,
2013-04-02 09:42:00,76.0,67.0,26.46,NE,40,0.0,4.0,74,0.00,,,0.00,,2013-04-02 13:42:00,
2013-04-02 09:52:00,76.0,67.0,26.46,NE,40,1.0,5.0,75,0.00,,,0.00,,2013-04-02 13:52:00,
2013-04-02 10:02:00,76.0,67.0,26.46,NE,40,0.0,5.0,75,0.00,,,0.00,,2013-04-02 14:02:00,
2013-04-02 10:12:00,76.0,67.0,26.46,NE,40,0.0,5.0,75,0.00,,,0.00,,2013-04-02 14:12:00,
2013-04-02 10:23:00,76.0,67.0,26.46,NE,40,2.0,6.0,75,0.00,,,0.00,,2013-04-02 14:23:00,
2013-04-02 10:32:00,76.0,67.0,26.46,NE,40,1.0,6.0,75,0.00,,,0.00,,2013-04-02 14:32:00,
2013-04-02 10:42:00,76.0,67.0,26.46,NE,40,1.0,6.0,75,0.00,,,0.00,,2013-04-02 14:42:00,
2013-04-02 10:52:00,77.0,68.0,26.46,NE,40,3.0,9.0,75,0.00,,,0.00,,2013-04-02 14:52:00,
2013-04-02 11:02:00,77.0,68.0,26.46,NE,40,0.0,8.0,73,0.00,,,0.00,,2013-04-02 15:02:00,
2013-04-02 11:11:00,77.0,68.0,26.46,NE,40,0.0,8.0,73,0.00,,,0.00,,2013-04-02 15:11:00,
2013-04-02 11:22:00,77.0,67.0,26.46,NE,40,2.0,6.0,72,0.00,,,0.00,,2013-04-02 15:22:00,
2013-04-02 11:33:00,78.0,67.0,26.46,NE,40,0.0,5.0,70,0.00,,,0.00,,2013-04-02 15:33:00,
2013-04-02 11:43:00,78.0,67.0,26.46,NE,40,0.0,5.0,70,0.00,,,0.00,,2013-04-02 15:43:00,
2013-04-02 11:58:00,78.0,67.0,26.46,NE,40,0.0,5.0,70,0.00,,,0.00,,2013-04-02 15:58:00,
2013-04-02 12:04:00,79.0,68.0,26.46,NE,40,1.0,6.0,69,0.00,,,0.00,,2013-04-02 16:04:00,
2013-04-02 12:13:00,79.0,68.0,26.46,NE,40,1.0,6.0,69,0.00,,,0.00,,2013-04-02 16:13:00,
2013-04-02 12:24:00,79.0,67.0,26.46,NE,40,2.0,7.0,67,0.00,,,0.00,,2013-04-02 16:24:00,
2013-04-02 12:37:00,79.0,67.0,26.46,NE,40,2.0,7.0,67,0.00,,,0.00,,2013-04-02 16:37:00,
2013-04-02 12:44:00,79.0,67.0,26.46,NE,40,2.0,7.0,67,0.00,,,0.00,,2013-04-02 16:44:00,
2013-04-02 12:53:00,81.0,67.0,26.46,NE,40,0.0,3.0,62,0.00,,,0.00,,2013-04-02 16:53:00,
2013-04-02 13:05:00,81.0,67.0,26.46,NE,40,0.0,4.0,63,0.00,,,0.00,,2013-04-02 17:05:00,
2013-04-02 13:13:00,81.0,67.0,26.46,NE,40,0.0,4.0,63,0.00,,,0.00,,2013-04-02 17:13:00,
2013-04-02 13:25:00,82.0,67.0,26.46,NE,40,0.0,5.0,61,0.00,,,0.00,,2013-04-02 17:25:00,
2013-04-02 13:34:00,82.0,67.0,26.46,NE,40,0.0,0.0,61,0.00,,,0.00,,2013-04-02 17:34:00,
2013-04-02 13:43:00,82.0,67.0,26.46,NE,40,0.0,0.0,61,0.00,,,0.00,,2013-04-02 17:43:00,
2013-04-02 13:57:00,81.0,66.0,26.46,NE,40,0.0,0.0,61,0.00,,,0.00,,2013-04-02 17:57:00,
2013-04-02 14:04:00,82.0,67.0,26.46,NE,40,0.0,3.0,60,0.00,,,0.00,,2013-04-02 18:04:00,
2013-04-02 14:12:00,82.0,67.0,26.46,NE,40,0.0,3.0,60,0.00,,,0.00,,2013-04-02 18:12:00,
2013-04-02 14:23:00,82.0,65.0,32.13,NE,40,0.0,1.0,56,0.00,,,0.00,,2013-04-02 18:23:00,
2013-04-02 14:34:00,82.0,65.0,32.13,NE,40,0.0,0.0,57,0.00,,,0.00,,2013-04-02 18:34:00,
2013-04-02 14:43:00,82.0,65.0,32.13,NE,40,0.0,0.0,57,0.00,,,0.00,,2013-04-02 18:43:00,
2013-04-02 14:57:00,83.0,61.0,26.41,NE,40,0.0,0.0,48,0.00,,,0.00,,2013-04-02 18:57:00,
2013-04-02 15:03:00,84.0,60.0,26.41,NE,40,0.0,0.0,45,0.00,,,0.00,,2013-04-02 19:03:00,
2013-04-02 15:13:00,84.0,60.0,26.41,NE,40,0.0,0.0,45,0.00,,,0.00,,2013-04-02 19:13:00,
2013-04-02 15:23:00,85.0,64.0,26.42,NE,40,0.0,0.0,49,0.00,,,0.00,,2013-04-02 19:23:00,
2013-04-02 15:34:00,85.0,62.0,26.42,NE,40,0.0,0.0,47,0.00,,,0.00,,2013-04-02 19:34:00,
2013-04-02 15:45:00,85.0,62.0,26.42,NE,40,0.0,0.0,47,0.00,,,0.00,,2013-04-02 19:45:00,
2013-04-02 15:57:00,83.0,64.0,26.41,NE,40,0.0,1.0,53,0.00,,,0.00,,2013-04-02 19:57:00,
2013-04-02 16:03:00,82.0,63.0,26.41,NE,40,0.0,3.0,53,0.00,,,0.00,,2013-04-02 20:03:00,
2013-04-02 16:13:00,82.0,63.0,26.41,NE,40,0.0,3.0,53,0.00,,,0.00,,2013-04-02 20:13:00,
2013-04-02 16:33:00,80.0,65.0,26.41,NE,40,0.0,1.0,60,0.00,,,0.00,,2013-04-02 20:33:00,
2013-04-02 16:44:00,80.0,65.0,26.41,NE,40,0.0,1.0,60,0.00,,,0.00,,2013-04-02 20:44:00,
2013-04-02 16:55:00,80.0,65.0,26.41,NE,40,0.0,1.0,60,0.00,,,0.00,,2013-04-02 20:55:00,
2013-04-02 17:04:00,80.0,68.0,30.22,NE,39,1.0,5.0,68,0.00,,,0.00,,2013-04-02 21:04:00,
2013-04-02 17:13:00,80.0,68.0,30.22,NE,39,1.0,5.0,68,0.00,,,0.00,,2013-04-02 21:13:00,
2013-04-02 17:23:00,80.0,68.0,26.41,NE,38,1.0,4.0,67,0.00,,,0.00,,2013-04-02 21:23:00,
2013-04-02 17:35:00,80.0,68.0,26.41,NNE,29,1.0,3.0,67,0.00,,,0.00,,2013-04-02 21:35:00,
2013-04-02 17:44:00,80.0,68.0,26.41,NNE,29,1.0,3.0,67,0.00,,,0.00,,2013-04-02 21:44:00,
2013-04-02 18:04:00,79.0,67.0,26.41,NNE,29,0.0,2.0,67,0.00,,,0.00,,2013-04-02 22:04:00,
2013-04-02 18:14:00,79.0,67.0,26.41,NNE,29,0.0,2.0,67,0.00,,,0.00,,2013-04-02 22:14:00,
2013-04-02 18:24:00,79.0,67.0,32.24,NNE,29,0.0,4.0,66,0.00,,,0.00,,2013-04-02 22:24:00,
2013-04-02 18:33:00,79.0,67.0,32.24,NNE,29,0.0,1.0,66,0.00,,,0.00,,2013-04-02 22:33:00,
2013-04-02 18:43:00,79.0,67.0,32.24,NNE,29,0.0,1.0,66,0.00,,,0.00,,2013-04-02 22:43:00,
2013-04-02 18:54:00,79.0,67.0,26.41,NNE,24,0.0,1.0,66,0.00,,,0.00,,2013-04-02 22:54:00,
2013-04-02 19:03:00,79.0,67.0,26.41,NNE,24,1.0,3.0,67,0.00,,,0.00,,2013-04-02 23:03:00,
2013-04-02 19:13:00,79.0,66.0,26.41,NNE,23,0.0,0.0,65,0.00,,,0.00,,2013-04-02 23:13:00,
2013-04-02 19:23:00,79.0,66.0,26.41,NNE,23,0.0,0.0,65,0.00,,,0.00,,2013-04-02 23:23:00,
2013-04-02 19:35:00,79.0,66.0,26.41,NNE,23,0.0,0.0,65,0.00,,,0.00,,2013-04-02 23:35:00,
2013-04-02 19:43:00,79.0,66.0,26.41,NNE,23,0.0,0.0,65,0.00,,,0.00,,2013-04-02 23:43:00,
2013-04-02 19:54:00,77.0,66.0,26.41,NNE,23,0.0,0.0,68,0.00,,,0.00,,2013-04-02 23:54:00,
2013-04-02 20:04:00,76.0,65.0,26.41,NNE,23,0.0,0.0,69,0.00,,,0.00,,2013-04-03 00:04:00,
2013-04-02 20:13:00,76.0,65.0,26.41,NNE,23,0.0,0.0,69,0.00,,,0.00,,2013-04-03 00:13:00,
2013-04-02 20:25:00,75.0,65.0,26.41,NNE,23,0.0,0.0,71,0.00,,,0.00,,2013-04-03 00:25:00,
2013-04-02 20:33:00,75.0,65.0,26.41,NNE,23,0.0,0.0,71,0.00,,,0.00,,2013-04-03 00:33:00,
2013-04-02 20:47:00,75.0,65.0,26.41,NNE,23,0.0,0.0,71,0.00,,,0.00,,2013-04-03 00:47:00,
2013-04-02 20:57:00,75.0,66.0,25.41,NNE,23,0.0,0.0,73,0.00,,,0.00,,2013-04-03 00:57:00,
2013-04-02 21:04:00,75.0,67.0,25.41,NNE,23,0.0,0.0,75,0.00,,,0.00,,2013-04-03 01:04:00,
2013-04-02 21:13:00,75.0,67.0,25.41,NNE,23,0.0,0.0,75,0.00,,,0.00,,2013-04-03 01:13:00,
2013-04-02 21:23:00,74.0,66.0,25.41,NNE,23,0.0,0.0,76,0.00,,,0.00,,2013-04-03 01:23:00,
2013-04-02 21:33:00,74.0,66.0,25.41,NNE,23,0.0,0.0,76,0.00,,,0.00,,2013-04-03 01:33:00,
2013-04-02 21:42:00,74.0,66.0,25.41,NNE,23,0.0,0.0,76,0.00,,,0.00,,2013-04-03 01:42:00,
2013-04-02 21:54:00,74.0,66.0,26.41,NNE,23,0.0,0.0,77,0.00,,,0.00,,2013-04-03 01:54:00,
2013-04-02 22:03:00,74.0,66.0,26.41,NNE,23,0.0,0.0,77,0.00,,,0.00,,2013-04-03 02:03:00,
2013-04-02 22:13:00,74.0,66.0,26.41,NNE,23,0.0,0.0,77,0.00,,,0.00,,2013-04-03 02:13:00,
2013-04-02 22:34:00,74.0,67.0,26.41,NNE,23,0.0,1.0,78,0.00,,,0.00,,2013-04-03 02:34:00,
2013-04-02 22:44:00,74.0,67.0,26.41,NNE,23,0.0,1.0,78,0.00,,,0.00,,2013-04-03 02:44:00,
2013-04-02 22:53:00,74.0,67.0,26.41,NNE,23,0.0,0.0,79,0.00,,,0.00,,2013-04-03 02:53:00,
2013-04-02 23:05:00,74.0,67.0,26.41,NNE,23,0.0,0.0,78,0.00,,,0.00,,2013-04-03 03:05:00,
2013-04-02 23:14:00,74.0,67.0,26.41,NNE,23,0.0,0.0,78,0.00,,,0.00,,2013-04-03 03:14:00,
2013-04-02 23:23:00,74.0,66.0,26.41,NNE,23,0.0,2.0,77,0.00,,,0.00,,2013-04-03 03:23:00,
2013-04-02 23:37:00,74.0,67.0,26.41,NNE,23,0.0,2.0,79,0.00,,,0.00,,2013-04-03 03:37:00,
2013-04-02 23:44:00,74.0,67.0,26.41,NNE,23,0.0,2.0,79,0.00,,,0.00,,2013-04-03 03:44:00,
2013-04-02 23:54:00,74.0,67.0,26.41,NNE,23,0.0,5.0,79,0.00,,,0.00,,2013-04-03 03:54:00,